Location: Sternwarte-Kraichtal
(49.1689°N, 8.6996°E)
Time: 20:39:35
(UTC+02:00)

Vanguard 2 Rocket - Pass Details

Date: 01 June 2022
Orbit: 553 x 3323 km, 32.9° (Epoch: 02 July)

Event Time Altitude Azimuth Distance (km) Brightness Sun altitude
Rises 10:13:19 0° 186° (S) 6,602 11.4 44.0°
Reaches altitude 10° 10:19:59 10° 169° (S) 5,959 11.5 45.0°
Maximum altitude 10:30:27 18° 135° (SE) 5,616 12.0 46.6°
Drops below altitude 10° 10:41:12 10° 103° (ESE) 6,191 12.0 48.2°
Sets 10:48:12 0° 87° (E) 6,965 11.9 49.2°
